Regional Weather Roundup
Issued by NWS

Home | Current Version | Previous Version | Graphics & Text | Print | Product List | Glossary On
Versions: 1 2 3 4 5 6 7 8 9 10 11 12 13 14 15 16 17 18 19 20 21 22 23 24 25 26 27 28 29 30 31 32 33 34 35 36 37 38 39 40 41 42 43 44 45 46 47 48 49 50
000
ASUS43 KLMK 302102
RWRKY
KENTUCKY REGIONAL WEATHER ROUNDUP
NATIONAL WEATHER SERVICE LOUISVILLE KY
500 PM EDT SAT APR 30 2016

NOTE "FAIR" INDICATES FEW OR NO CLOUDS BELOW 12,000 FEET
WITH NO SIGNIFICANT WEATHER AND/OR OBSTRUCTIONS TO VISIBILITY.

KYZ001>023-026-027-061>063-070>075-302200-
WESTERN AND SOUTH CENTRAL KENTUCKY

CITY           SKY/WX    TMP DP  RH WIND       PRES   REMARKS
PADUCAH        CLOUDY    72  61  68 SW6       29.79F
HENDERSON      CLOUDY    70  63  78 S16       29.81F
OWENSBORO      CLOUDY    70  66  86 S13       29.85F
HOPKINSVILLE   CLOUDY    70  64  83 S10       29.86S
BOWLING GREEN  CLOUDY    73  64  73 S9        29.87R
GLASGOW        NOT AVBL
$$

KYZ024-025-028>034-038-045-046-053-302200-
NORTH CENTRAL KENTUCKY

CITY           SKY/WX    TMP DP  RH WIND       PRES   REMARKS
LOUISVILLE/SDF CLOUDY    67  61  81 CALM      29.89R
LOUISVILLE/LOU CLOUDY    66  61  84 CALM      29.89R
FORT KNOX      CLOUDY    66  63  91 SE3       29.86S
$$

KYZ035>037-039>044-047>052-055>060-089>105-302200-
NORTHEAST KENTUCKY

CITY           SKY/WX    TMP DP  RH WIND       PRES   REMARKS
LEXINGTON      CLOUDY    63  59  87 SE14      29.91F
COVINGTON      CLOUDY    59  57  93 SE10      29.91F
FRANKFORT      CLOUDY    64  59  83 SE12      29.88F
$$

KYZ054-064>069-076>088-106>120-302200-
SOUTHEAST KENTUCKY

CITY           SKY/WX    TMP DP  RH WIND       PRES   REMARKS
JACKSON        CLOUDY    60  58  92 VRB3      29.99F
LONDON         CLOUDY    63  58  83 E7        29.95F
SOMERSET       NOT AVBL
MIDDLESBORO    NOT AVBL
MONTICELLO     CLOUDY    67  62  84 NE8       29.95F
$$





USA.gov is the U.S. government's official web portal to all federal, state and local government web resources and services.